Find Starlink 38373

NORAD ID: 100502 Int'l Des: 2026-197 Owner: SPXS Country: US Constellation: starlink operational

Current View

Loading 3D Globe...

About Starlink 38373

Starlink 38373 (NORAD 100502) is a starlink constellation satellite launched Aug 25, 2026 by SPXS of US. with a mass of 575.00 kg.

Upcoming Passes

Passes for default location (London). Set your location on the main map for personalized predictions.

Altitude History

Loading altitude history...

Two-Line Element Set

1 A0502U 26197A 26248.25087577 -.00579219 00000-0 -25335-2 0 9990
2 A0502 69.9954 165.0429 0004275 286.6236 73.4498 15.85745560 1584
Epoch: Sep 5, 2026 • Age: 9 hours

Current Status

Altitude 337.7 km
Apogee / Perigee N/A
Velocity 7.71 km/s
Sub-Earth Point -67.81°S, 104.81°W
Launch Date Aug 25, 2026
Age 11 days
Type internet

Technical Details

Classification Payload
Mass 575.00 kg
Dry Mass 530.00 kg
Total Mass 575.00 kg
Length 0.30 m
Diameter 4.10 m
Span 29.00 m
Shape Box + pan
Manufacturer SPXS
Bus Type Starlink V2MO
Phase Status In Orbit
Owner/State SPXS/US

Most Searched